Weather History for Salinas, CA

Change the Weather History Date:

Saturday, January 25, 2014

  Actual Average Record
Temperature  
Mean Temperature 62 °F 52 °F  
Max Temperature 78 °F 62 °F 78 °F (2014)
Min Temperature 45 °F 42 °F 26 °F (1949)
Degree Days  
Heating Degree Days 3 13  
Month to date heating degree days 198 345  
Since 1 July heating degree days 1127 1398  
Cooling Degree Days 0 0  
Month to date cooling degree days 2 0  
Year to date cooling degree days 2 0  
Growing Degree Days 11 (Base 50)    
Moisture  
Dew Point 42 °F    
Average Humidity 56    
Maximum Humidity 93    
Minimum Humidity 18    
Precipitation  
Precipitation 0.00 in 0.08 in 0.74 in (1969)
Month to date precipitation 0.01 2.07  
Year to date precipitation 0.01 2.07  
Since 1 July precipitation 0.95 6.18  
Sea Level Pressure  
Sea Level Pressure 30.21 in    
Wind  
Wind Speed 5 mph (East)    
Max Wind Speed 15 mph    
Max Gust Speed 17 mph    
Visibility 9 miles    
Events      
T = Trace of Precipitation, MM = Missing Value Source: NWS Daily Summary

Daily Weather History Graph

Daily Weather History Graph

Search for Another Location

Airport:

Trip Planner

Search our weather history database for the weather conditions in past years. The results will help you decide how hot, cold, wet, or windy it might be!

Date:

Astronomy

Jan. 25, 2014 Rise Set
Actual Time 7:13 AM PST 5:24 PM PST
Civil Twilight 6:45 AM PST 5:52 PM PST
Nautical Twilight 6:14 AM PST 6:23 PM PST
Astronomical Twilight 5:43 AM PST 6:54 PM PST
Moon 1:51 AM PST (1/25) 12:29 PM PST (1/25)
Length of Visible Light 11h 06m
Length of Day
10h 11m
Waning Crescent, 33% of the Moon is Illuminated
Jan 25
Waning Crescent
Jan 30
New
Feb 6
First Quarter
Feb 14
Full
Feb 22
Last Quarter

Hourly Weather History & Observations

Time (PST) Temp. Windchill Dew Point Humidity Pressure Visibility Wind Dir Wind Speed Gust Speed Precip Events Conditions
12:53 AM 45.0 °F 42.6 °F 42.1 °F 90% 30.28 in 4.0 mi ENE 4.6 mph - N/A   Clear
1:32 AM 46.4 °F - 44.6 °F 93% 30.25 in 4.0 mi Calm Calm - N/A   Partly Cloudy
1:53 AM 46.9 °F - 45.0 °F 93% 30.27 in 4.0 mi Calm Calm - N/A   Clear
2:53 AM 46.9 °F - 44.1 °F 90% 30.26 in 7.0 mi SE 3.5 mph - N/A   Clear
3:53 AM 48.9 °F - 46.0 °F 90% 30.25 in 6.0 mi East 3.5 mph - N/A   Clear
4:53 AM 50.0 °F - 46.0 °F 86% 30.25 in 7.0 mi ESE 6.9 mph - N/A   Clear
5:53 AM 51.1 °F - 46.0 °F 83% 30.24 in 10.0 mi ENE 3.5 mph - N/A   Clear
6:53 AM 51.1 °F - 44.1 °F 77% 30.24 in 10.0 mi ESE 11.5 mph - N/A   Clear
7:53 AM 53.1 °F - 44.1 °F 71% 30.24 in 9.0 mi East 9.2 mph - N/A   Clear
8:53 AM 59.0 °F - 45.0 °F 60% 30.25 in 9.0 mi East 11.5 mph - N/A   Clear
9:53 AM 62.1 °F - 44.1 °F 52% 30.25 in 10.0 mi East 6.9 mph - N/A   Clear
10:53 AM 66.0 °F - 43.0 °F 43% 30.25 in 10.0 mi ESE 9.2 mph - N/A   Clear
11:53 AM 68.0 °F - 43.0 °F 40% 30.22 in 10.0 mi SSE 4.6 mph - N/A   Clear
12:53 PM 73.9 °F - 39.0 °F 28% 30.18 in 10.0 mi Calm Calm - N/A   Clear
1:53 PM 77.0 °F - 30.0 °F 18% 30.15 in 10.0 mi Calm Calm - N/A   Clear
2:53 PM 77.0 °F - 33.1 °F 20% 30.14 in 10.0 mi West 4.6 mph - N/A   Clear
3:53 PM 66.9 °F - 45.0 °F 45% 30.14 in 10.0 mi WNW 12.7 mph - N/A   Clear
4:53 PM 64.9 °F - 44.1 °F 47% 30.15 in 10.0 mi NW 8.1 mph - N/A   Clear
5:53 PM 63.0 °F - 42.1 °F 46% 30.16 in 10.0 mi NW 6.9 mph - N/A   Clear
6:53 PM 61.0 °F - 44.1 °F 54% 30.18 in 10.0 mi WNW 4.6 mph - N/A   Clear
7:53 PM 57.9 °F - 42.1 °F 56% 30.18 in 9.0 mi Calm Calm - N/A   Clear
8:53 PM 54.0 °F - 39.0 °F 57% 30.17 in 10.0 mi Calm Calm - N/A   Clear
9:53 PM 53.1 °F - 42.1 °F 66% 30.18 in 8.0 mi West 4.6 mph - N/A   Clear
10:53 PM 53.1 °F - 30.9 °F 43% 30.17 in 10.0 mi Calm Calm - N/A   Clear
11:53 PM 48.9 °F - 34.0 °F 56% 30.16 in 10.0 mi Calm Calm - N/A   Clear